Погода в Мегарах

Греция     37°59′44″N   23°20′35″E
темп.,
°C
ветер,
м/с
пор.,
м/с
влажн.,
%
обл.,
%
осадки,
мм/ч
давл.,
гПа
погр.,
м
1 августа, вс
вс100:00+29св22380 0.0 100914
03:00+28ссз33380 0.0 100919
06:00+27сз44450 0.0 100949
09:00+32сз33310 0.0 1010269
12:00+36з12250 0.0 10101213
15:00+37ююз23250 0.0 10092093
18:00+36ююв33260 0.0 1009639
21:00+29ю11450 0.0 101012
2 августа, пн
пн200:00+30ссз11380 0.0 101011
03:00+29ссз33380 0.0 101018
06:00+28сз44390 0.0 101040
09:00+33сз33290 0.0 1011256
12:00+37сз35210 0.0 10111075
15:00+39всв26210 0.0 10092100
18:00+37ююв34220 0.0 10091055
21:00+32в11335 0.0 101011
3 августа, вт
вт300:00+31сз45280 0.0 101164
03:00+31ссз44300 0.0 101143
06:00+30сз55310 0.0 101153
09:00+34сз45270 0.0 1012207
12:00+40ссз46160 0.0 10112090
15:00+41с34160 0.0 10103273
18:00+38ююз33240 0.0 1010576
21:00+32ссв01332 0.0 101111
4 августа, ср
ср400:00+31сз33275 0.0 101124
03:00+30ссз33312 0.0 101224
06:00+29ссз22280 0.0 101115
09:00+35сз22220 0.0 1012251
12:00+38зсз24190 0.0 10121363
15:00+40в04200 0.0 10102785
18:00+37ю33230 0.0 1010615
21:00+32ссз22325 0.0 101112
5 августа, чт
чт500:00+31юз12326 0.0 101112
03:00+29ссз33370 0.0 101131
06:00+29ссз33350 0.0 101020
09:00+33зсз22290 0.0 1010282
12:00+37зюз24240 0.0 10101548
15:00+39ю13220 0.0 10072065
18:00+34сз343290 0.0 1008398
21:00+31ю11381 0.0 100711